Home > Weather > Sevilla > Past weeks

Flag for Spain Past Weather in Sevilla, Spain — Yesterday and Last 2 Weeks

Now
99 °F

Sunny.


Feels Like: 95 °F
Forecast: 70 / 102 °F
Wind: 1 mph from North

Location: Sevilla / San Pablo

Current Time: Jul 23, 2016 at 7:09:55 PM

Latest Report: Jul 23, 2016 at 6:30 PM


Visibility: 10 mi

Pressure: 29.89 "Hg

Humidity: 19%

Dew Point: 50 °F

Location of SevillaLocation

Past Weather in Sevilla — Graph

°F

Sevilla Temperature Yesterday

Maximum temperature yesterday: 95 °F (at 5:30 PM)
Minimum temperature yesterday: 68 °F (at 7:30 AM)
Average temperature yesterday: 81 °F

High & Low Weather Summary for the Past Weeks

 TemperatureHumidityPressure
High106 °F (Jul 19, 5:30 PM)88% (Jul 21, 5:00 AM)30.07 "Hg (Jul 21, 5:00 AM)
Low66 °F (Jul 23, 7:00 AM)9% (Jul 13, 2:30 PM)29.83 "Hg (Jul 11, 8:00 PM)
Average86 °F38%29.95 "Hg
* Reported Jul 8 6:00 PM — Jul 23 6:00 PM, Sevilla, Weather by CustomWeather, © 2016

Note: Actual official high and low records may vary slightly from our data, if they occured in-between our weather recording intervals... More about our weather records

Advertising

Sevilla Weather History for the Previous 24 Hours

Scroll right to see more
 ConditionsComfort  
Time TempWeatherWind HumidityBarometerVisibility
6:00 PM
Sat, Jul 23
99 °FSunny.2 mph18%29.92 "Hg10 mi
5:30 PM97 °FSunny.1 mph19%29.92 "Hg10 mi
5:00 PM97 °FSunny.3 mph18%29.92 "Hg10 mi
4:30 PM97 °FSunny.2 mph14%29.95 "Hg10 mi
4:00 PM93 °FSunny.3 mph26%29.95 "Hg10 mi
3:30 PM93 °FSunny.3 mph32%29.95 "Hg10 mi
3:00 PM91 °FPassing clouds.3 mph34%29.95 "HgN/A
2:30 PM90 °FSunny.2 mph36%29.98 "Hg10 mi
2:00 PM88 °FSunny.2 mph43%29.98 "Hg10 mi
1:30 PM88 °FSunny.1 mph43%30.01 "Hg10 mi
1:00 PM84 °FSunny.2 mph48%30.01 "Hg10 mi
12:30 PM82 °FSunny.2 mph55%30.01 "Hg10 mi
12:00 PM82 °FSunny.2 mph55%30.01 "Hg10 mi
11:30 AM79 °FSunny.2 mph61%30.01 "Hg10 mi
11:00 AM79 °FSunny.2 mph65%30.01 "Hg10 mi
10:30 AM77 °FSunny.1 mph65%30.01 "Hg10 mi
10:00 AM75 °FSunny.1 mph69%29.98 "Hg10 mi
9:30 AM73 °FPassing clouds.3 mph74%29.98 "HgN/A
9:00 AM73 °FSunny.1 mph74%29.98 "Hg10 mi
8:30 AM72 °FSunny.1 mph73%29.98 "Hg10 mi
8:00 AM68 °FClear.1 mph78%29.98 "Hg10 mi
7:30 AM66 °FClear.1 mph83%29.95 "Hg10 mi
7:00 AM66 °FClear.3 mph83%29.95 "Hg10 mi
6:30 AM68 °FClear.1 mph78%29.95 "Hg10 mi
6:00 AM68 °FClear.1 mph78%29.95 "Hg10 mi
5:30 AM68 °FClear.1 mph78%29.95 "Hg10 mi
5:00 AM70 °FClear.1 mph78%29.95 "Hg10 mi
4:30 AM72 °FPassing clouds.3 mph73%29.95 "HgN/A
4:00 AM72 °FPassing clouds.3 mph73%29.95 "HgN/A
3:00 AM72 °FPassing clouds.3 mph73%29.95 "HgN/A
2:30 AM73 °FPassing clouds.5 mph74%29.95 "HgN/A
2:00 AM73 °FPassing clouds.6 mph74%29.95 "HgN/A
1:30 AM73 °FClear.6 mph74%29.95 "Hg10 mi
1:00 AM75 °FPassing clouds.6 mph69%29.95 "HgN/A
12:30 AM75 °FPassing clouds.7 mph69%29.95 "HgN/A
12:00 AM75 °FPassing clouds.9 mph69%29.95 "HgN/A
11:30 PM
Fri, Jul 22
77 °FPassing clouds.9 mph65%29.95 "HgN/A
11:00 PM77 °FPassing clouds.9 mph61%29.95 "HgN/A
10:30 PM79 °FPassing clouds.9 mph58%29.92 "HgN/A
10:00 PM81 °FPassing clouds.12 mph54%29.92 "HgN/A
9:30 PM82 °FPassing clouds.13 mph51%29.92 "HgN/A
9:00 PM84 °FPassing clouds.12 mph48%29.89 "HgN/A
8:30 PM86 °FPassing clouds.15 mph43%29.89 "HgN/A
8:00 PM86 °FPassing clouds.17 mph43%29.89 "HgN/A
7:30 PM90 °FPassing clouds.15 mph41%29.89 "HgN/A
7:00 PM91 °FSunny.18 mph36%29.89 "Hg10 mi
Weather by CustomWeather, © 2016

See weather overviewHow to use our weather pages